owner,sensor,date,latitude,longitude,vertical_datum,wind_speed,wind_to_direction,wind_speed_of_gust,qcFlag 
DISL,ioos:station:DISL:MBLA:1,2014-01-01T00:00:00Z,30.4367,-88.0117,14.2,8.8,360.0,99.0,'11111222,11144222,11144222' 
DISL,ioos:station:DISL:MBLA:1,2014-01-01T00:30:00Z,30.4367,-88.0117,14.2,6.4,29.0,99.0,'11111222,11111222,11144222' 
DISL,ioos:station:DISL:MBLA:1,2014-01-01T01:00:00Z,30.4367,-88.0117,14.2,6.6,16.0,99.0,'11111222,11111222,11144222' 
DISL,ioos:station:DISL:MBLA:1,2014-01-01T01:30:00Z,30.4367,-88.0117,14.2,6.8,8.0,99.0,'11111222,11111222,11144222' 
DISL,ioos:station:DISL:MBLA:1,2014-01-01T02:00:00Z,30.4367,-88.0117,14.2,6.2,25.0,99.0,'11111222,11111222,11144222' 
DISL,ioos:station:DISL:MBLA:1,2014-01-01T02:30:00Z,30.4367,-88.0117,14.2,6.2,15.0,99.0,'11111222,11111222,11144222' 
DISL,ioos:station:DISL:MBLA:1,2014-01-01T03:00:00Z,30.4367,-88.0117,14.2,5.2,17.0,99.0,'11111222,11111222,11144222' 
DISL,ioos:station:DISL:MBLA:1,2014-01-01T03:30:00Z,30.4367,-88.0117,14.2,6.0,15.0,99.0,'11111222,11111222,11144222' 
DISL,ioos:station:DISL:MBLA:1,2014-01-01T04:00:00Z,30.4367,-88.0117,14.2,4.4,35.0,99.0,'11111222,11111222,11144222' 
DISL,ioos:station:DISL:MBLA:1,2014-01-01T04:30:00Z,30.4367,-88.0117,14.2,2.9,35.0,99.0,'11111222,11111222,11144222' 
DISL,ioos:station:DISL:MBLA:1,2014-01-01T05:00:00Z,30.4367,-88.0117,14.2,3.8,65.0,99.0,'11111222,11111222,11144222' 
DISL,ioos:station:DISL:MBLA:1,2014-01-01T06:30:00Z,30.4367,-88.0117,14.2,3.14,22.86,-9999.0,'1111122,1111122,1111122' 
DISL,ioos:station:DISL:MBLA:1,2014-01-01T07:00:00Z,30.4367,-88.0117,14.2,3.64,50.18,-9999.0,'1111122,1111122,1111122' 
DISL,ioos:station:DISL:MBLA:1,2014-01-01T07:30:00Z,30.4367,-88.0117,14.2,3.81,46.54,-9999.0,'1111122,1111122,1111122' 
DISL,ioos:station:DISL:MBLA:1,2014-01-01T08:00:00Z,30.4367,-88.0117,14.2,2.85,71.41,-9999.0,'1111122,1111122,1111122' 
DISL,ioos:station:DISL:MBLA:1,2014-01-01T08:30:00Z,30.4367,-88.0117,14.2,3.1,85.8,-9999.0,'1111122,1111122,1111122' 
DISL,ioos:station:DISL:MBLA:1,2014-01-01T09:00:00Z,30.4367,-88.0117,14.2,3.87,72.31,-9999.0,'1111122,1111122,1111122' 
DISL,ioos:station:DISL:MBLA:1,2014-01-01T09:30:00Z,30.4367,-88.0117,14.2,3.97,78.65,-9999.0,'1111122,1111122,1111122' 
DISL,ioos:station:DISL:MBLA:1,2014-01-01T10:00:00Z,30.4367,-88.0117,14.2,4.12,80.9,-9999.0,'1111122,1111122,1111122' 
DISL,ioos:station:DISL:MBLA:1,2014-01-01T10:30:00Z,30.4367,-88.0117,14.2,4.0,104.3,-9999.0,'1111122,1111122,1111122' 
DISL,ioos:station:DISL:MBLA:1,2014-01-01T11:00:00Z,30.4367,-88.0117,14.2,2.53,84.5,-9999.0,'1111122,1111122,1111122' 
DISL,ioos:station:DISL:MBLA:1,2014-01-01T11:30:00Z,30.4367,-88.0117,14.2,2.21,37.2,-9999.0,'1111122,1111122,1111122' 
DISL,ioos:station:DISL:MBLA:1,2014-01-01T12:00:00Z,30.4367,-88.0117,14.2,0.38,61.16,-9999.0,'1111122,1111122,1111122' 
DISL,ioos:station:DISL:MBLA:1,2014-01-01T12:30:00Z,30.4367,-88.0117,14.2,2.39,64.66,-9999.0,'1111122,1111122,1111122' 
DISL,ioos:station:DISL:MBLA:1,2014-01-01T13:00:00Z,30.4367,-88.0117,14.2,2.05,53.79,-9999.0,'1111122,1111122,1111122' 
DISL,ioos:station:DISL:MBLA:1,2014-01-01T13:30:00Z,30.4367,-88.0117,14.2,2.94,87.9,-9999.0,'1111122,1111122,1111122' 
DISL,ioos:station:DISL:MBLA:1,2014-01-01T14:00:00Z,30.4367,-88.0117,14.2,4.67,100.0,-9999.0,'1111122,1111122,1111122' 
DISL,ioos:station:DISL:MBLA:1,2014-01-01T14:30:00Z,30.4367,-88.0117,14.2,4.7,103.6,-9999.0,'1111122,1111122,1111122' 
DISL,ioos:station:DISL:MBLA:1,2014-01-01T15:00:00Z,30.4367,-88.0117,14.2,3.65,82.4,-9999.0,'1111122,1111122,1111122' 
DISL,ioos:station:DISL:MBLA:1,2014-01-01T15:30:00Z,30.4367,-88.0117,14.2,3.2,56.37,-9999.0,'1111122,1111122,1111122' 
DISL,ioos:station:DISL:MBLA:1,2014-01-01T16:00:00Z,30.4367,-88.0117,14.2,2.58,53.31,-9999.0,'1111122,1111122,1111122' 
DISL,ioos:station:DISL:MBLA:1,2014-01-01T16:30:00Z,30.4367,-88.0117,14.2,2.39,2.98,-9999.0,'1111122,1111122,1111122' 
DISL,ioos:station:DISL:MBLA:1,2014-01-01T17:00:00Z,30.4367,-88.0117,14.2,3.54,5.44,-9999.0,'1111122,1111122,1111122' 
DISL,ioos:station:DISL:MBLA:1,2014-01-01T17:30:00Z,30.4367,-88.0117,14.2,2.85,351.3,-9999.0,'1111122,1111122,1111122' 
DISL,ioos:station:DISL:MBLA:1,2014-01-01T18:00:00Z,30.4367,-88.0117,14.2,2.77,354.8,-9999.0,'1111122,1111122,1111122' 
DISL,ioos:station:DISL:MBLA:1,2014-01-01T18:30:00Z,30.4367,-88.0117,14.2,2.86,343.4,-9999.0,'1111122,1111122,1111122' 
DISL,ioos:station:DISL:MBLA:1,2014-01-01T19:00:00Z,30.4367,-88.0117,14.2,3.09,349.2,-9999.0,'1111122,1111122,1111122' 
DISL,ioos:station:DISL:MBLA:1,2014-01-01T19:30:00Z,30.4367,-88.0117,14.2,0.1,351.0,-9999.0,'1111122,1111122,1111122' 
DISL,ioos:station:DISL:MBLA:1,2014-01-01T20:00:00Z,30.4367,-88.0117,14.2,0.0,0.0,-9999.0,'1114422,1114422,1111122' 
DISL,ioos:station:DISL:MBLA:1,2014-01-01T20:30:00Z,30.4367,-88.0117,14.2,3.09,341.6,-9999.0,'1111122,1111122,1111122' 
DISL,ioos:station:DISL:MBLA:1,2014-01-01T21:00:00Z,30.4367,-88.0117,14.2,2.92,359.7,-9999.0,'1111122,1111122,1111122' 
DISL,ioos:station:DISL:MBLA:1,2014-01-01T21:30:00Z,30.4367,-88.0117,14.2,2.55,4.72,-9999.0,'1111122,1111122,1111122' 
DISL,ioos:station:DISL:MBLA:1,2014-01-01T22:00:00Z,30.4367,-88.0117,14.2,1.85,36.68,-9999.0,'1111122,1111122,1111122' 
DISL,ioos:station:DISL:MBLA:1,2014-01-01T22:30:00Z,30.4367,-88.0117,14.2,1.13,31.76,-9999.0,'1111122,1111122,1111122' 
DISL,ioos:station:DISL:MBLA:1,2014-01-01T23:00:00Z,30.4367,-88.0117,14.2,0.96,20.94,-9999.0,'1111122,1111122,1111122' 
DISL,ioos:station:DISL:MBLA:1,2014-01-01T23:30:00Z,30.4367,-88.0117,14.2,0.0,18.97,-9999.0,'1114422,1111122,1111122' 
DISL,ioos:station:DISL:MBLA:1,2014-01-02T00:00:00Z,30.4367,-88.0117,14.2,0.0,77.44,-9999.0,'1114422,1111122,1111122' 
DISL,ioos:station:DISL:MBLA:1,2014-01-02T00:30:00Z,30.4367,-88.0117,14.2,4.37,346.6,-9999.0,'1111122,1111122,1111122' 
DISL,ioos:station:DISL:MBLA:1,2014-01-02T01:00:00Z,30.4367,-88.0117,14.2,3.96,19.05,-9999.0,'1111122,1111122,1111122' 
DISL,ioos:station:DISL:MBLA:1,2014-01-02T01:30:00Z,30.4367,-88.0117,14.2,2.63,51.86,-9999.0,'1111122,1111122,1111122' 
DISL,ioos:station:DISL:MBLA:1,2014-01-02T02:00:00Z,30.4367,-88.0117,14.2,2.81,87.4,-9999.0,'1111122,1111122,1111122' 
DISL,ioos:station:DISL:MBLA:1,2014-01-02T02:30:00Z,30.4367,-88.0117,14.2,2.32,80.2,-9999.0,'1111122,1111122,1111122' 
DISL,ioos:station:DISL:MBLA:1,2014-01-02T03:00:00Z,30.4367,-88.0117,14.2,0.34,82.1,-9999.0,'1111122,1111122,1111122' 
DISL,ioos:station:DISL:MBLA:1,2014-01-02T03:30:00Z,30.4367,-88.0117,14.2,3.34,94.6,-9999.0,'1111122,1111122,1111122' 
DISL,ioos:station:DISL:MBLA:1,2014-01-02T04:00:00Z,30.4367,-88.0117,14.2,3.64,72.43,-9999.0,'1111122,1111122,1111122' 
DISL,ioos:station:DISL:MBLA:1,2014-01-02T04:30:00Z,30.4367,-88.0117,14.2,6.59,92.9,-9999.0,'1111122,1111122,1111122' 
DISL,ioos:station:DISL:MBLA:1,2014-01-02T05:00:00Z,30.4367,-88.0117,14.2,6.58,96.1,-9999.0,'1111122,1111122,1111122' 
DISL,ioos:station:DISL:MBLA:1,2014-01-02T05:30:00Z,30.4367,-88.0117,14.2,4.72,339.9,-9999.0,'1111122,1111122,1111122' 
DISL,ioos:station:DISL:MBLA:1,2014-01-02T06:00:00Z,30.4367,-88.0117,14.2,5.61,357.9,-9999.0,'1111122,1111122,1111122' 
DISL,ioos:station:DISL:MBLA:1,2014-01-02T06:30:00Z,30.4367,-88.0117,14.2,4.92,17.44,-9999.0,'1111122,1111122,1111122' 
DISL,ioos:station:DISL:MBLA:1,2014-01-02T07:00:00Z,30.4367,-88.0117,14.2,2.67,28.87,-9999.0,'1111122,1111122,1111122' 
DISL,ioos:station:DISL:MBLA:1,2014-01-02T07:30:00Z,30.4367,-88.0117,14.2,2.55,4.451,-9999.0,'1111122,1111122,1111122' 
DISL,ioos:station:DISL:MBLA:1,2014-01-02T08:00:00Z,30.4367,-88.0117,14.2,3.47,48.32,-9999.0,'1111122,1111122,1111122' 
DISL,ioos:station:DISL:MBLA:1,2014-01-02T08:30:00Z,30.4367,-88.0117,14.2,3.6,80.8,-9999.0,'1111122,1111122,1111122' 
DISL,ioos:station:DISL:MBLA:1,2014-01-02T09:00:00Z,30.4367,-88.0117,14.2,5.05,102.9,-9999.0,'1111122,1111122,1111122' 
DISL,ioos:station:DISL:MBLA:1,2014-01-02T09:30:00Z,30.4367,-88.0117,14.2,2.19,72.97,-9999.0,'1111122,1111122,1111122' 
DISL,ioos:station:DISL:MBLA:1,2014-01-02T10:00:00Z,30.4367,-88.0117,14.2,0.94,21.35,-9999.0,'1111122,1111122,1111122' 
DISL,ioos:station:DISL:MBLA:1,2014-01-02T10:30:00Z,30.4367,-88.0117,14.2,2.07,37.12,-9999.0,'1111122,1111122,1111122' 
DISL,ioos:station:DISL:MBLA:1,2014-01-02T11:00:00Z,30.4367,-88.0117,14.2,3.88,71.17,-9999.0,'1111122,1111122,1111122' 
DISL,ioos:station:DISL:MBLA:1,2014-01-02T11:30:00Z,30.4367,-88.0117,14.2,0.56,59.43,-9999.0,'1111122,1111122,1111122' 
DISL,ioos:station:DISL:MBLA:1,2014-01-02T12:00:00Z,30.4367,-88.0117,14.2,0.0,0.0,-9999.0,'1114422,1114422,1111122' 
DISL,ioos:station:DISL:MBLA:1,2014-01-02T12:30:00Z,30.4367,-88.0117,14.2,0.0,0.0,-9999.0,'1114422,1114422,1111122' 
DISL,ioos:station:DISL:MBLA:1,2014-01-02T13:00:00Z,30.4367,-88.0117,14.2,0.56,115.4,-9999.0,'1111122,1111122,1111122' 
DISL,ioos:station:DISL:MBLA:1,2014-01-02T13:30:00Z,30.4367,-88.0117,14.2,2.22,143.0,-9999.0,'1111122,1111122,1111122' 
DISL,ioos:station:DISL:MBLA:1,2014-01-02T14:00:00Z,30.4367,-88.0117,14.2,7.13,279.4,-9999.0,'1111122,1111122,1111122' 
DISL,ioos:station:DISL:MBLA:1,2014-01-02T14:30:00Z,30.4367,-88.0117,14.2,3.95,309.7,-9999.0,'1111122,1111122,1111122' 
DISL,ioos:station:DISL:MBLA:1,2014-01-02T15:00:00Z,30.4367,-88.0117,14.2,2.51,310.5,-9999.0,'1111122,1111122,1111122' 
DISL,ioos:station:DISL:MBLA:1,2014-01-02T15:30:00Z,30.4367,-88.0117,14.2,2.95,309.7,-9999.0,'1111122,1111122,1111122' 
DISL,ioos:station:DISL:MBLA:1,2014-01-02T16:00:00Z,30.4367,-88.0117,14.2,3.06,338.6,-9999.0,'1111122,1111122,1111122' 
DISL,ioos:station:DISL:MBLA:1,2014-01-02T16:30:00Z,30.4367,-88.0117,14.2,7.15,313.6,-9999.0,'1111122,1111122,1111122' 
DISL,ioos:station:DISL:MBLA:1,2014-01-02T17:00:00Z,30.4367,-88.0117,14.2,7.08,318.6,-9999.0,'1111122,1111122,1111122' 
DISL,ioos:station:DISL:MBLA:1,2014-01-02T17:30:00Z,30.4367,-88.0117,14.2,8.54,316.2,-9999.0,'1111122,1111122,1111122' 
DISL,ioos:station:DISL:MBLA:1,2014-01-02T18:00:00Z,30.4367,-88.0117,14.2,10.49,315.9,-9999.0,'1111122,1111122,1111122' 
DISL,ioos:station:DISL:MBLA:1,2014-01-02T18:30:00Z,30.4367,-88.0117,14.2,8.75,315.7,-9999.0,'1111122,1111122,1111122' 
DISL,ioos:station:DISL:MBLA:1,2014-01-02T19:00:00Z,30.4367,-88.0117,14.2,9.13,320.9,-9999.0,'1111122,1111122,1111122' 
DISL,ioos:station:DISL:MBLA:1,2014-01-02T19:30:00Z,30.4367,-88.0117,14.2,9.3,319.6,-9999.0,'1111122,1111122,1111122' 
DISL,ioos:station:DISL:MBLA:1,2014-01-02T20:00:00Z,30.4367,-88.0117,14.2,10.95,320.8,-9999.0,'1111122,1111122,1111122' 
DISL,ioos:station:DISL:MBLA:1,2014-01-02T20:30:00Z,30.4367,-88.0117,14.2,11.71,318.2,-9999.0,'1111122,1111122,1111122' 
DISL,ioos:station:DISL:MBLA:1,2014-01-02T21:00:00Z,30.4367,-88.0117,14.2,12.54,329.7,-9999.0,'1111122,1111122,1111122' 
DISL,ioos:station:DISL:MBLA:1,2014-01-02T21:30:00Z,30.4367,-88.0117,14.2,14.37,331.4,-9999.0,'1111122,1111122,1111122' 
DISL,ioos:station:DISL:MBLA:1,2014-01-02T22:00:00Z,30.4367,-88.0117,14.2,12.68,328.3,-9999.0,'1111122,1111122,1111122' 
DISL,ioos:station:DISL:MBLA:1,2014-01-02T22:30:00Z,30.4367,-88.0117,14.2,12.6,334.2,-9999.0,'1111122,1111122,1111122' 
DISL,ioos:station:DISL:MBLA:1,2014-01-02T23:00:00Z,30.4367,-88.0117,14.2,13.15,332.5,-9999.0,'1111122,1111122,1111122' 
DISL,ioos:station:DISL:MBLA:1,2014-01-02T23:30:00Z,30.4367,-88.0117,14.2,13.56,333.9,-9999.0,'1111122,1111122,1111122' 
DISL,ioos:station:DISL:MBLA:1,2014-01-03T00:00:00Z,30.4367,-88.0117,14.2,14.29,336.0,-9999.0,'1111122,1111122,1111122' 
DISL,ioos:station:DISL:MBLA:1,2014-01-03T00:30:00Z,30.4367,-88.0117,14.2,12.71,338.7,-9999.0,'1111122,1111122,1111122' 
DISL,ioos:station:DISL:MBLA:1,2014-01-03T01:00:00Z,30.4367,-88.0117,14.2,13.31,339.7,-9999.0,'1111122,1111122,1111122' 
DISL,ioos:station:DISL:MBLA:1,2014-01-03T01:30:00Z,30.4367,-88.0117,14.2,12.45,339.4,-9999.0,'1111122,1111122,1111122' 
DISL,ioos:station:DISL:MBLA:1,2014-01-03T02:00:00Z,30.4367,-88.0117,14.2,11.46,337.4,-9999.0,'1111122,1111122,1111122' 
DISL,ioos:station:DISL:MBLA:1,2014-01-03T02:30:00Z,30.4367,-88.0117,14.2,11.0,338.2,-9999.0,'1111122,1111122,1111122' 
DISL,ioos:station:DISL:MBLA:1,2014-01-03T03:00:00Z,30.4367,-88.0117,14.2,10.83,336.9,-9999.0,'1111122,1111122,1111122' 
DISL,ioos:station:DISL:MBLA:1,2014-01-03T03:30:00Z,30.4367,-88.0117,14.2,12.35,337.4,-9999.0,'1111122,1111122,1111122' 
DISL,ioos:station:DISL:MBLA:1,2014-01-03T04:00:00Z,30.4367,-88.0117,14.2,11.02,339.4,-9999.0,'1111122,1111122,1111122' 
DISL,ioos:station:DISL:MBLA:1,2014-01-03T04:30:00Z,30.4367,-88.0117,14.2,11.3,334.7,-9999.0,'1111122,1111122,1111122' 
DISL,ioos:station:DISL:MBLA:1,2014-01-03T05:00:00Z,30.4367,-88.0117,14.2,10.28,335.7,-9999.0,'1111122,1111122,1111122' 
DISL,ioos:station:DISL:MBLA:1,2014-01-03T05:30:00Z,30.4367,-88.0117,14.2,10.7,332.6,-9999.0,'1111122,1111122,1111122' 
DISL,ioos:station:DISL:MBLA:1,2014-01-03T06:00:00Z,30.4367,-88.0117,14.2,9.31,330.7,-9999.0,'1111122,1111122,1111122' 
DISL,ioos:station:DISL:MBLA:1,2014-01-03T06:30:00Z,30.4367,-88.0117,14.2,10.07,333.0,-9999.0,'1111122,1111122,1111122' 
DISL,ioos:station:DISL:MBLA:1,2014-01-03T07:00:00Z,30.4367,-88.0117,14.2,10.42,335.3,-9999.0,'1111122,1111122,1111122' 
DISL,ioos:station:DISL:MBLA:1,2014-01-03T07:30:00Z,30.4367,-88.0117,14.2,10.47,335.1,-9999.0,'1111122,1111122,1111122' 
DISL,ioos:station:DISL:MBLA:1,2014-01-03T08:00:00Z,30.4367,-88.0117,14.2,9.93,337.5,-9999.0,'1111122,1111122,1111122' 
DISL,ioos:station:DISL:MBLA:1,2014-01-03T08:30:00Z,30.4367,-88.0117,14.2,11.05,341.6,-9999.0,'1111122,1111122,1111122' 
DISL,ioos:station:DISL:MBLA:1,2014-01-03T09:00:00Z,30.4367,-88.0117,14.2,10.44,340.7,-9999.0,'1111122,1111122,1111122' 
DISL,ioos:station:DISL:MBLA:1,2014-01-03T09:30:00Z,30.4367,-88.0117,14.2,10.71,342.1,-9999.0,'1111122,1111122,1111122' 
DISL,ioos:station:DISL:MBLA:1,2014-01-03T10:00:00Z,30.4367,-88.0117,14.2,10.25,345.4,-9999.0,'1111122,1111122,1111122' 
DISL,ioos:station:DISL:MBLA:1,2014-01-03T10:30:00Z,30.4367,-88.0117,14.2,10.96,344.8,-9999.0,'1111122,1111122,1111122' 
DISL,ioos:station:DISL:MBLA:1,2014-01-03T11:00:00Z,30.4367,-88.0117,14.2,10.54,347.2,-9999.0,'1111122,1111122,1111122' 
DISL,ioos:station:DISL:MBLA:1,2014-01-03T11:30:00Z,30.4367,-88.0117,14.2,9.51,355.8,-9999.0,'1111122,1111122,1111122' 
DISL,ioos:station:DISL:MBLA:1,2014-01-03T12:00:00Z,30.4367,-88.0117,14.2,8.66,355.9,-9999.0,'1111122,1111122,1111122' 
DISL,ioos:station:DISL:MBLA:1,2014-01-03T12:30:00Z,30.4367,-88.0117,14.2,8.77,357.8,-9999.0,'1111122,1111122,1111122' 
DISL,ioos:station:DISL:MBLA:1,2014-01-03T13:00:00Z,30.4367,-88.0117,14.2,8.72,350.7,-9999.0,'1111122,1111122,1111122' 
DISL,ioos:station:DISL:MBLA:1,2014-01-03T13:30:00Z,30.4367,-88.0117,14.2,8.67,354.0,-9999.0,'1111122,1111122,1111122' 
DISL,ioos:station:DISL:MBLA:1,2014-01-03T14:00:00Z,30.4367,-88.0117,14.2,8.34,7.289,-9999.0,'1111122,1111122,1111122' 
DISL,ioos:station:DISL:MBLA:1,2014-01-03T14:30:00Z,30.4367,-88.0117,14.2,9.96,15.54,-9999.0,'1111122,1111122,1111122' 
DISL,ioos:station:DISL:MBLA:1,2014-01-03T15:00:00Z,30.4367,-88.0117,14.2,10.95,6.471,-9999.0,'1111122,1111122,1111122' 
DISL,ioos:station:DISL:MBLA:1,2014-01-03T15:30:00Z,30.4367,-88.0117,14.2,10.24,4.796,-9999.0,'1111122,1111122,1111122' 
DISL,ioos:station:DISL:MBLA:1,2014-01-03T16:00:00Z,30.4367,-88.0117,14.2,10.45,11.57,-9999.0,'1111122,1111122,1111122' 
DISL,ioos:station:DISL:MBLA:1,2014-01-03T16:30:00Z,30.4367,-88.0117,14.2,10.18,9.94,-9999.0,'1111122,1111122,1111122' 
DISL,ioos:station:DISL:MBLA:1,2014-01-03T17:00:00Z,30.4367,-88.0117,14.2,9.24,7.331,-9999.0,'1111122,1111122,1111122' 
DISL,ioos:station:DISL:MBLA:1,2014-01-03T17:30:00Z,30.4367,-88.0117,14.2,8.11,358.0,-9999.0,'1111122,1111122,1111122' 
DISL,ioos:station:DISL:MBLA:1,2014-01-03T18:00:00Z,30.4367,-88.0117,14.2,8.39,358.6,-9999.0,'1111122,1111122,1111122' 
DISL,ioos:station:DISL:MBLA:1,2014-01-03T18:30:00Z,30.4367,-88.0117,14.2,8.0,3.385,-9999.0,'1111122,1111122,1111122' 
DISL,ioos:station:DISL:MBLA:1,2014-01-03T19:00:00Z,30.4367,-88.0117,14.2,6.92,359.3,-9999.0,'1111122,1111122,1111122' 
DISL,ioos:station:DISL:MBLA:1,2014-01-03T19:30:00Z,30.4367,-88.0117,14.2,6.98,6.737,-9999.0,'1111122,1111122,1111122' 
DISL,ioos:station:DISL:MBLA:1,2014-01-03T20:00:00Z,30.4367,-88.0117,14.2,7.18,9.67,-9999.0,'1111122,1111122,1111122' 
DISL,ioos:station:DISL:MBLA:1,2014-01-03T20:30:00Z,30.4367,-88.0117,14.2,6.43,356.9,-9999.0,'1111122,1111122,1111122' 
DISL,ioos:station:DISL:MBLA:1,2014-01-03T21:00:00Z,30.4367,-88.0117,14.2,5.79,353.9,-9999.0,'1111122,1111122,1111122' 
DISL,ioos:station:DISL:MBLA:1,2014-01-03T21:30:00Z,30.4367,-88.0117,14.2,6.53,351.2,-9999.0,'1111122,1111122,1111122' 
DISL,ioos:station:DISL:MBLA:1,2014-01-03T22:00:00Z,30.4367,-88.0117,14.2,6.39,356.6,-9999.0,'1111122,1111122,1111122' 
DISL,ioos:station:DISL:MBLA:1,2014-01-03T22:30:00Z,30.4367,-88.0117,14.2,6.85,353.2,-9999.0,'1111122,1111122,1111122' 
DISL,ioos:station:DISL:MBLA:1,2014-01-03T23:00:00Z,30.4367,-88.0117,14.2,6.35,355.1,-9999.0,'1111122,1111122,1111122' 
DISL,ioos:station:DISL:MBLA:1,2014-01-03T23:30:00Z,30.4367,-88.0117,14.2,6.73,358.7,-9999.0,'1111122,1111122,1111122' 
DISL,ioos:station:DISL:MBLA:1,2014-01-04T00:00:00Z,30.4367,-88.0117,14.2,7.1,6.619,-9999.0,'1111122,1111122,1111122' 
DISL,ioos:station:DISL:MBLA:1,2014-01-04T00:30:00Z,30.4367,-88.0117,14.2,7.07,10.32,-9999.0,'1111122,1111122,1111122' 
DISL,ioos:station:DISL:MBLA:1,2014-01-04T01:00:00Z,30.4367,-88.0117,14.2,7.34,15.73,-9999.0,'1111122,1111122,1111122' 
DISL,ioos:station:DISL:MBLA:1,2014-01-04T01:30:00Z,30.4367,-88.0117,14.2,6.83,23.63,-9999.0,'1111122,1111122,1111122' 
DISL,ioos:station:DISL:MBLA:1,2014-01-04T02:00:00Z,30.4367,-88.0117,14.2,6.92,30.64,-9999.0,'1111122,1111122,1111122' 
DISL,ioos:station:DISL:MBLA:1,2014-01-04T02:30:00Z,30.4367,-88.0117,14.2,5.89,37.86,-9999.0,'1111122,1111122,1111122' 
DISL,ioos:station:DISL:MBLA:1,2014-01-04T03:00:00Z,30.4367,-88.0117,14.2,5.6,48.51,-9999.0,'1111122,1111122,1111122' 
DISL,ioos:station:DISL:MBLA:1,2014-01-04T03:30:00Z,30.4367,-88.0117,14.2,4.86,69.61,-9999.0,'1111122,1111122,1111122' 
DISL,ioos:station:DISL:MBLA:1,2014-01-04T04:00:00Z,30.4367,-88.0117,14.2,5.15,72.28,-9999.0,'1111122,1111122,1111122' 
DISL,ioos:station:DISL:MBLA:1,2014-01-04T04:30:00Z,30.4367,-88.0117,14.2,5.71,66.23,-9999.0,'1111122,1111122,1111122' 
DISL,ioos:station:DISL:MBLA:1,2014-01-04T05:00:00Z,30.4367,-88.0117,14.2,6.89,67.7,-9999.0,'1111122,1111122,1111122' 
DISL,ioos:station:DISL:MBLA:1,2014-01-04T05:30:00Z,30.4367,-88.0117,14.2,7.08,61.32,-9999.0,'1111122,1111122,1111122' 
DISL,ioos:station:DISL:MBLA:1,2014-01-04T06:00:00Z,30.4367,-88.0117,14.2,6.35,65.9,-9999.0,'1111122,1111122,1111122' 
DISL,ioos:station:DISL:MBLA:1,2014-01-04T06:30:00Z,30.4367,-88.0117,14.2,6.44,60.34,-9999.0,'1111122,1111122,1111122' 
DISL,ioos:station:DISL:MBLA:1,2014-01-04T07:00:00Z,30.4367,-88.0117,14.2,6.98,57.11,-9999.0,'1111122,1111122,1111122' 
DISL,ioos:station:DISL:MBLA:1,2014-01-04T07:30:00Z,30.4367,-88.0117,14.2,7.77,63.63,-9999.0,'1111122,1111122,1111122' 
DISL,ioos:station:DISL:MBLA:1,2014-01-04T08:00:00Z,30.4367,-88.0117,14.2,8.02,61.76,-9999.0,'1111122,1111122,1111122' 
DISL,ioos:station:DISL:MBLA:1,2014-01-04T08:30:00Z,30.4367,-88.0117,14.2,8.31,66.82,-9999.0,'1111122,1111122,1111122' 
DISL,ioos:station:DISL:MBLA:1,2014-01-04T09:00:00Z,30.4367,-88.0117,14.2,8.46,63.94,-9999.0,'1111122,1111122,1111122' 
DISL,ioos:station:DISL:MBLA:1,2014-01-04T09:30:00Z,30.4367,-88.0117,14.2,8.36,66.8,-9999.0,'1111122,1111122,1111122' 
DISL,ioos:station:DISL:MBLA:1,2014-01-04T10:00:00Z,30.4367,-88.0117,14.2,8.08,69.8,-9999.0,'1111122,1111122,1111122' 
DISL,ioos:station:DISL:MBLA:1,2014-01-04T10:30:00Z,30.4367,-88.0117,14.2,7.69,67.35,-9999.0,'1111122,1111122,1111122' 
DISL,ioos:station:DISL:MBLA:1,2014-01-04T11:00:00Z,30.4367,-88.0117,14.2,8.4,68.87,-9999.0,'1111122,1111122,1111122' 
DISL,ioos:station:DISL:MBLA:1,2014-01-04T11:30:00Z,30.4367,-88.0117,14.2,8.38,67.49,-9999.0,'1111122,1111122,1111122' 
DISL,ioos:station:DISL:MBLA:1,2014-01-04T12:00:00Z,30.4367,-88.0117,14.2,8.67,68.51,-9999.0,'1111122,1111122,1111122' 
DISL,ioos:station:DISL:MBLA:1,2014-01-04T12:30:00Z,30.4367,-88.0117,14.2,8.87,69.8,-9999.0,'1111122,1111122,1111122' 
DISL,ioos:station:DISL:MBLA:1,2014-01-04T13:00:00Z,30.4367,-88.0117,14.2,8.35,70.21,-9999.0,'1111122,1111122,1111122' 
DISL,ioos:station:DISL:MBLA:1,2014-01-04T13:30:00Z,30.4367,-88.0117,14.2,8.73,73.09,-9999.0,'1111122,1111122,1111122' 
DISL,ioos:station:DISL:MBLA:1,2014-01-04T14:00:00Z,30.4367,-88.0117,14.2,8.76,74.31,-9999.0,'1111122,1111122,1111122' 
DISL,ioos:station:DISL:MBLA:1,2014-01-04T14:30:00Z,30.4367,-88.0117,14.2,8.73,72.69,-9999.0,'1111122,1111122,1111122' 
DISL,ioos:station:DISL:MBLA:1,2014-01-04T15:00:00Z,30.4367,-88.0117,14.2,7.85,78.83,-9999.0,'1111122,1111122,1111122' 
DISL,ioos:station:DISL:MBLA:1,2014-01-04T15:30:00Z,30.4367,-88.0117,14.2,6.63,75.39,-9999.0,'1111122,1111122,1111122' 
DISL,ioos:station:DISL:MBLA:1,2014-01-04T16:00:00Z,30.4367,-88.0117,14.2,6.57,73.55,-9999.0,'1111122,1111122,1111122' 
DISL,ioos:station:DISL:MBLA:1,2014-01-04T16:30:00Z,30.4367,-88.0117,14.2,6.86,76.29,-9999.0,'1111122,1111122,1111122' 
DISL,ioos:station:DISL:MBLA:1,2014-01-04T17:00:00Z,30.4367,-88.0117,14.2,5.79,77.83,-9999.0,'1111122,1111122,1111122' 
DISL,ioos:station:DISL:MBLA:1,2014-01-04T17:30:00Z,30.4367,-88.0117,14.2,4.6,76.3,-9999.0,'1111122,1111122,1111122' 
DISL,ioos:station:DISL:MBLA:1,2014-01-04T18:00:00Z,30.4367,-88.0117,14.2,2.37,54.34,-9999.0,'1111122,1111122,1111122' 
DISL,ioos:station:DISL:MBLA:1,2014-01-04T18:30:00Z,30.4367,-88.0117,14.2,0.32,75.26,-9999.0,'1111122,1111122,1111122' 
DISL,ioos:station:DISL:MBLA:1,2014-01-04T19:00:00Z,30.4367,-88.0117,14.2,0.52,110.3,-9999.0,'1111122,1111122,1111122' 
DISL,ioos:station:DISL:MBLA:1,2014-01-04T19:30:00Z,30.4367,-88.0117,14.2,1.45,110.1,-9999.0,'1111122,1111122,1111122' 
DISL,ioos:station:DISL:MBLA:1,2014-01-04T20:00:00Z,30.4367,-88.0117,14.2,3.19,119.4,-9999.0,'1111122,1111122,1111122' 
DISL,ioos:station:DISL:MBLA:1,2014-01-04T20:30:00Z,30.4367,-88.0117,14.2,2.68,106.8,-9999.0,'1111122,1111122,1111122' 
DISL,ioos:station:DISL:MBLA:1,2014-01-04T21:00:00Z,30.4367,-88.0117,14.2,2.1,106.8,-9999.0,'1111122,1111122,1111122' 
DISL,ioos:station:DISL:MBLA:1,2014-01-04T21:30:00Z,30.4367,-88.0117,14.2,1.98,71.84,-9999.0,'1111122,1111122,1111122' 
DISL,ioos:station:DISL:MBLA:1,2014-01-04T22:00:00Z,30.4367,-88.0117,14.2,1.16,93.4,-9999.0,'1111122,1111122,1111122' 
DISL,ioos:station:DISL:MBLA:1,2014-01-04T22:30:00Z,30.4367,-88.0117,14.2,3.72,86.5,-9999.0,'1111122,1111122,1111122' 
DISL,ioos:station:DISL:MBLA:1,2014-01-04T23:00:00Z,30.4367,-88.0117,14.2,3.47,91.5,-9999.0,'1111122,1111122,1111122' 
DISL,ioos:station:DISL:MBLA:1,2014-01-04T23:30:00Z,30.4367,-88.0117,14.2,3.81,99.6,-9999.0,'1111122,1111122,1111122' 
DISL,ioos:station:DISL:MBLA:1,2014-01-05T00:00:00Z,30.4367,-88.0117,14.2,4.59,99.2,-9999.0,'1111122,1111122,1111122' 
DISL,ioos:station:DISL:MBLA:1,2014-01-05T00:30:00Z,30.4367,-88.0117,14.2,4.22,92.7,-9999.0,'1111122,1111122,1111122' 
DISL,ioos:station:DISL:MBLA:1,2014-01-05T01:00:00Z,30.4367,-88.0117,14.2,4.2,86.6,-9999.0,'1111122,1111122,1111122' 
DISL,ioos:station:DISL:MBLA:1,2014-01-05T01:30:00Z,30.4367,-88.0117,14.2,4.3,91.6,-9999.0,'1111122,1111122,1111122' 
DISL,ioos:station:DISL:MBLA:1,2014-01-05T02:00:00Z,30.4367,-88.0117,14.2,4.02,93.5,-9999.0,'1111122,1111122,1111122' 
DISL,ioos:station:DISL:MBLA:1,2014-01-05T02:30:00Z,30.4367,-88.0117,14.2,4.7,92.3,-9999.0,'1111122,1111122,1111122' 
DISL,ioos:station:DISL:MBLA:1,2014-01-05T03:00:00Z,30.4367,-88.0117,14.2,5.01,96.7,-9999.0,'1111122,1111122,1111122' 
DISL,ioos:station:DISL:MBLA:1,2014-01-05T03:30:00Z,30.4367,-88.0117,14.2,4.6,100.0,-9999.0,'1111122,1111122,1111122' 
DISL,ioos:station:DISL:MBLA:1,2014-01-05T04:00:00Z,30.4367,-88.0117,14.2,4.83,97.7,-9999.0,'1111122,1111122,1111122' 
DISL,ioos:station:DISL:MBLA:1,2014-01-05T04:30:00Z,30.4367,-88.0117,14.2,3.96,92.9,-9999.0,'1111122,1111122,1111122' 
DISL,ioos:station:DISL:MBLA:1,2014-01-05T05:00:00Z,30.4367,-88.0117,14.2,3.45,90.7,-9999.0,'1111122,1111122,1111122' 